User: anonymous   Login
Location: Brno
(49.2000°N, 16.6330°E)
Time: 02:28:26
(UTC+01:00)
Language:

Cosmos 2227 - Orbit

View from above orbital plane
View from above orbital plane
View from above satellite
View from above satellite

Ground track
Ground track

The orbit data is extracted from the following two-line orbital elements,

1 22284U 92093A   18048.50275911 -.00000223  00000-0 -93560-4 0  9998
2 22284  70.9764  81.2207 0018755 170.7687 189.3783 14.13269952297318
Epoch (UTC): 17 February 2018 12:03:58
Eccentricity: 0.0018755
inclination: 70.9764°
perigee height: 834 km
apogee height: 862 km
right ascension of ascending node: 81.2207°
argument of perigee: 170.7687°
revolutions per day: 14.13269952
mean anomaly at epoch: 189.3783°
orbit number at epoch: 29731

The dashed part of the orbit path shows where the satellite is in the earth's shadow,  

DLR